Meteo orario Alhimkovo

Oggi, 20 Ottobre, Martedi

Tempo Temperatura Precipitazioni Vento Pressione Umidità
00:00 0°C° 0.4 mm 5 m/s 738 mm Hg 89%
01:00 0°C° 0.4 mm 4 m/s 738 mm Hg 86%
02:00 0°C° 0 mm 4 m/s 738 mm Hg 82%
03:00 -1°C° 0 mm 4 m/s 738 mm Hg 83%
04:00 -1°C° 0 mm 4 m/s 739 mm Hg 84%
05:00 0°C° 0 mm 3 m/s 739 mm Hg 85%
06:00 0°C° 0 mm 3 m/s 739 mm Hg 86%
07:00 0°C° 0 mm 3 m/s 739 mm Hg 87%
08:00 +1°C° 0 mm 3 m/s 740 mm Hg 88%
09:00 +1°C° 0.1 mm 3 m/s 740 mm Hg 87%
10:00 0°C° 0.1 mm 4 m/s 741 mm Hg 85%
11:00 0°C° 0.1 mm 4 m/s 741 mm Hg 83%
12:00 0°C° 0.1 mm 4 m/s 742 mm Hg 83%
13:00 0°C° 0.1 mm 4 m/s 742 mm Hg 82%
14:00 0°C° 0.1 mm 4 m/s 743 mm Hg 81%
15:00 0°C° 0 mm 4 m/s 744 mm Hg 82%
16:00 -1°C° 0 mm 4 m/s 744 mm Hg 83%
17:00 -1°C° 0 mm 4 m/s 745 mm Hg 85%
18:00 -1°C° 0.1 mm 4 m/s 745 mm Hg 87%
19:00 0°C° 0.1 mm 3 m/s 746 mm Hg 89%
20:00 -1°C° 0.1 mm 3 m/s 746 mm Hg 92%
21:00 -1°C° 0 mm 3 m/s 747 mm Hg 91%
22:00 -1°C° 0 mm 3 m/s 747 mm Hg 91%
23:00 -1°C° 0 mm 3 m/s 747 mm Hg 90%

Domani, 21 Ottobre, Mercoledi

Tempo Temperatura Precipitazioni Vento Pressione Umidità
00:00 -2°C° 0 mm 3 m/s 747 mm Hg 91%
01:00 -2°C° 0 mm 3 m/s 748 mm Hg 92%
02:00 -2°C° 0 mm 2 m/s 748 mm Hg 93%
03:00 -3°C° 0 mm 2 m/s 748 mm Hg 92%
04:00 -3°C° 0 mm 2 m/s 748 mm Hg 92%
05:00 -3°C° 0 mm 2 m/s 748 mm Hg 91%
06:00 -2°C° 0 mm 2 m/s 748 mm Hg 89%
07:00 -2°C° 0 mm 2 m/s 748 mm Hg 87%
08:00 -1°C° 0 mm 2 m/s 748 mm Hg 84%
09:00 +1°C° 0 mm 2 m/s 748 mm Hg 81%
10:00 +1°C° 0 mm 2 m/s 748 mm Hg 78%
11:00 +2°C° 0 mm 2 m/s 748 mm Hg 75%
12:00 +2°C° 0 mm 2 m/s 748 mm Hg 74%
13:00 +3°C° 0 mm 2 m/s 748 mm Hg 73%
14:00 +4°C° 0 mm 1 m/s 748 mm Hg 72%
15:00 +3°C° 0 mm 1 m/s 748 mm Hg 77%
16:00 +2°C° 0 mm 1 m/s 748 mm Hg 83%
17:00 +2°C° 0 mm 1 m/s 747 mm Hg 89%
18:00 +2°C° 0 mm 1 m/s 747 mm Hg 91%
19:00 +2°C° 0 mm 1 m/s 747 mm Hg 93%
20:00 +2°C° 0 mm 1 m/s 747 mm Hg 95%
21:00 +2°C° 0 mm 1 m/s 747 mm Hg 96%
22:00 +2°C° 0 mm 1 m/s 747 mm Hg 96%
23:00 +3°C° 0 mm 1 m/s 747 mm Hg 97%

Dopodomani, 22 Ottobre, Giovedi

Tempo Temperatura Precipitazioni Vento Pressione Umidità
00:00 +3°C° 0 mm 1 m/s 747 mm Hg 97%
01:00 +3°C° 0 mm 1 m/s 747 mm Hg 97%
02:00 +3°C° 0 mm 1 m/s 747 mm Hg 97%
03:00 +3°C° 0 mm 1 m/s 747 mm Hg 97%
04:00 +2°C° 0 mm 2 m/s 747 mm Hg 97%
05:00 +2°C° 0 mm 2 m/s 746 mm Hg 97%
06:00 +2°C° 0 mm 2 m/s 746 mm Hg 96%
07:00 +3°C° 0 mm 2 m/s 746 mm Hg 96%
08:00 +3°C° 0 mm 2 m/s 746 mm Hg 96%
09:00 +2°C° 0 mm 3 m/s 745 mm Hg 93%
10:00 +3°C° 0 mm 3 m/s 745 mm Hg 91%
11:00 +4°C° 0 mm 3 m/s 745 mm Hg 89%
12:00 +4°C° 0 mm 3 m/s 744 mm Hg 89%
13:00 +4°C° 0 mm 3 m/s 744 mm Hg 88%
14:00 +4°C° 0 mm 4 m/s 743 mm Hg 88%
15:00 +4°C° 0.5 mm 4 m/s 742 mm Hg 90%
16:00 +4°C° 0.5 mm 4 m/s 741 mm Hg 92%
17:00 +4°C° 0.5 mm 4 m/s 741 mm Hg 94%
18:00 +5°C° 1 mm 4 m/s 740 mm Hg 94%
19:00 +5°C° 1 mm 4 m/s 739 mm Hg 95%
20:00 +5°C° 1 mm 4 m/s 739 mm Hg 95%
21:00 +6°C° 0.9 mm 4 m/s 738 mm Hg 96%
22:00 +6°C° 0.9 mm 4 m/s 738 mm Hg 96%
23:00 +6°C° 0.9 mm 4 m/s 737 mm Hg 96%

23 Ottobre, Venerdi

Tempo Temperatura Precipitazioni Vento Pressione Umidità
00:00 +7°C° 0.5 mm 4 m/s 737 mm Hg 95%
01:00 +8°C° 0.5 mm 4 m/s 737 mm Hg 93%
02:00 +10°C° 0.5 mm 4 m/s 737 mm Hg 91%
03:00 +9°C° 0.2 mm 5 m/s 737 mm Hg 90%
04:00 +9°C° 0.2 mm 5 m/s 737 mm Hg 89%
05:00 +9°C° 0.2 mm 5 m/s 737 mm Hg 87%
06:00 +9°C° 0 mm 5 m/s 737 mm Hg 88%
07:00 +10°C° 0 mm 4 m/s 737 mm Hg 88%
08:00 +10°C° 0 mm 4 m/s 737 mm Hg 88%
09:00 +10°C° 0 mm 4 m/s 737 mm Hg 88%
10:00 +10°C° 0 mm 4 m/s 737 mm Hg 88%
11:00 +11°C° 0 mm 4 m/s 737 mm Hg 88%
12:00 +11°C° 0.1 mm 4 m/s 737 mm Hg 89%
13:00 +11°C° 0.1 mm 4 m/s 736 mm Hg 90%
14:00 +11°C° 0.1 mm 4 m/s 736 mm Hg 91%
15:00 +11°C° 0.7 mm 4 m/s 735 mm Hg 92%
16:00 +11°C° 0.7 mm 4 m/s 734 mm Hg 94%
17:00 +11°C° 0.7 mm 4 m/s 734 mm Hg 95%
18:00 +11°C° 1.3 mm 4 m/s 734 mm Hg 94%
19:00 +11°C° 1.3 mm 4 m/s 733 mm Hg 94%
20:00 +11°C° 1.3 mm 4 m/s 733 mm Hg 94%
21:00 +10°C° 0.8 mm 4 m/s 733 mm Hg 93%
22:00 +10°C° 0.8 mm 4 m/s 733 mm Hg 93%
23:00 +10°C° 0.8 mm 4 m/s 733 mm Hg 92%

24 Ottobre, Sabato

Tempo Temperatura Precipitazioni Vento Pressione Umidità
00:00 +10°C° 0.5 mm 4 m/s 733 mm Hg 91%
01:00 +10°C° 0.5 mm 4 m/s 733 mm Hg 90%
02:00 +10°C° 0.5 mm 4 m/s 733 mm Hg 89%
03:00 +10°C° 0.2 mm 4 m/s 733 mm Hg 87%
04:00 +10°C° 0.2 mm 4 m/s 733 mm Hg 86%
05:00 +10°C° 0.2 mm 4 m/s 733 mm Hg 85%
06:00 +8°C° 0.1 mm 4 m/s 734 mm Hg 84%
07:00 +8°C° 0.1 mm 4 m/s 734 mm Hg 83%
08:00 +8°C° 0.1 mm 4 m/s 734 mm Hg 82%
09:00 +8°C° 0 mm 4 m/s 735 mm Hg 79%
10:00 +8°C° 0 mm 4 m/s 736 mm Hg 75%
11:00 +8°C° 0 mm 4 m/s 737 mm Hg 72%
12:00 +7°C° 0 mm 4 m/s 737 mm Hg 72%
13:00 +7°C° 0 mm 4 m/s 737 mm Hg 72%
14:00 +8°C° 0 mm 3 m/s 737 mm Hg 72%
15:00 +7°C° 0 mm 2 m/s 737 mm Hg 76%
16:00 +6°C° 0 mm 2 m/s 738 mm Hg 80%
17:00 +6°C° 0 mm 1 m/s 738 mm Hg 84%
18:00 +5°C° 0 mm 1 m/s 738 mm Hg 85%
19:00 +5°C° 0 mm 1 m/s 738 mm Hg 85%
20:00 +5°C° 0 mm 1 m/s 739 mm Hg 86%
21:00 +4°C° 0 mm 0 m/s 739 mm Hg 86%
22:00 +3°C° 0 mm 0 m/s 739 mm Hg 87%
23:00 +3°C° 0 mm 0 m/s 739 mm Hg 88%

25 Ottobre, Domenica

Tempo Temperatura Precipitazioni Vento Pressione Umidità
00:00 +3°C° 0 mm 0 m/s 739 mm Hg 88%
01:00 +2°C° 0 mm 0 m/s 739 mm Hg 89%
02:00 +2°C° 0 mm 0 m/s 738 mm Hg 90%
03:00 +3°C° 0 mm 1 m/s 739 mm Hg 90%
04:00 +3°C° 0 mm 1 m/s 739 mm Hg 91%
05:00 +2°C° 0 mm 1 m/s 739 mm Hg 91%
06:00 +3°C° 0 mm 1 m/s 739 mm Hg 91%
07:00 +3°C° 0 mm 1 m/s 739 mm Hg 90%
08:00 +3°C° 0 mm 1 m/s 740 mm Hg 90%
09:00 +4°C° 0 mm 1 m/s 740 mm Hg 86%
10:00 +4°C° 0 mm 2 m/s 741 mm Hg 83%
11:00 +5°C° 0 mm 2 m/s 741 mm Hg 80%
12:00 +5°C° 0 mm 2 m/s 741 mm Hg 77%
13:00 +5°C° 0 mm 2 m/s 742 mm Hg 75%
14:00 +4°C° 0 mm 3 m/s 742 mm Hg 72%
15:00 +3°C° 0 mm 3 m/s 742 mm Hg 77%
16:00 +3°C° 0 mm 2 m/s 742 mm Hg 82%
17:00 +2°C° 0 mm 2 m/s 743 mm Hg 87%
18:00 +2°C° 0 mm 2 m/s 743 mm Hg 88%
19:00 +2°C° 0 mm 2 m/s 743 mm Hg 88%
20:00 +2°C° 0 mm 2 m/s 744 mm Hg 89%
21:00 +1°C° 0 mm 2 m/s 744 mm Hg 91%
22:00 +1°C° 0 mm 2 m/s 744 mm Hg 92%
23:00 -1°C° 0 mm 2 m/s 744 mm Hg 94%

26 Ottobre, Lunedi

Tempo Temperatura Precipitazioni Vento Pressione Umidità
00:00 -1°C° 0 mm 2 m/s 745 mm Hg 94%
01:00 -1°C° 0 mm 2 m/s 745 mm Hg 95%
02:00 -1°C° 0 mm 2 m/s 745 mm Hg 96%
03:00 -1°C° 0 mm 2 m/s 745 mm Hg 96%
04:00 -2°C° 0 mm 2 m/s 745 mm Hg 96%
05:00 -2°C° 0 mm 2 m/s 745 mm Hg 96%
06:00 -1°C° 0 mm 2 m/s 745 mm Hg 93%
07:00 +1°C° 0 mm 2 m/s 745 mm Hg 91%
08:00 +2°C° 0 mm 2 m/s 745 mm Hg 89%
09:00 +1°C° 0 mm 3 m/s 745 mm Hg 87%
10:00 +2°C° 0 mm 3 m/s 745 mm Hg 86%
11:00 +3°C° 0 mm 3 m/s 745 mm Hg 85%
12:00 +3°C° 0.3 mm 3 m/s 744 mm Hg 88%
13:00 +3°C° 0.3 mm 3 m/s 744 mm Hg 91%
14:00 +2°C° 0.3 mm 3 m/s 744 mm Hg 94%
15:00 +3°C° 0.3 mm 3 m/s 744 mm Hg 94%
16:00 +3°C° 0.3 mm 3 m/s 744 mm Hg 93%
17:00 +3°C° 0.3 mm 3 m/s 744 mm Hg 93%
18:00 +2°C° 0 mm 3 m/s 745 mm Hg 91%
19:00 +1°C° 0 mm 3 m/s 745 mm Hg 89%
20:00 +1°C° 0 mm 2 m/s 746 mm Hg 87%
21:00 -1°C° 0 mm 2 m/s 746 mm Hg 89%
22:00 -2°C° 0 mm 2 m/s 747 mm Hg 90%
23:00 -2°C° 0 mm 2 m/s 747 mm Hg 92%
Mostrare altro

Abbiamo bisogno del tuo consenso

Meteoprog e i nostri fornitori di servizi possono memorizzare e accedere a dati personali come cookie, identificatori di dispositivi o altre tecnologie simili sul tuo dispositivo e possono elaborare tali dati per personalizzare i contenuti e gli annunci, nonché fornire funzionalità dei social media e analizzarne il traffico.

  • Archiviare e/o accedere alle informazioni sul tuo dispositivo

    Cookie, identificatori di dispositivi o altre informazioni possono essere memorizzati o resi accessibili sul tuo dispositivo per le finalità sopra indicate.

  • Annunci e contenuti personalizzati, misurazione di annunci e contenuti, approfondimenti sul pubblico e sviluppo di prodotti

    Gli annunci e i contenuti possono essere personalizzati in base a un profilo. È possibile aggiungere più dati per personalizzare meglio annunci e contenuti. È possibile misurare il rendimento degli annunci e dei contenuti. È possibile ricavare informazioni sul pubblico che ha visto gli annunci e i contenuti. Tali dati possono essere utilizzati per sviluppare o migliorare l'esperienza, i sistemi e il software dell'utente.

Cliccando su “Accetto”, acconsenti all'uso di cookie, identificatori di dispositivo, web beacon o altre tecnologie simili. Puoi modificare le impostazioni nel browser del tuo dispositivo.

Per determinati scopi, è possibile fare affidamento su interessi legali, piuttosto che sul consenso. Puoi approfondire questo argomento consultando la nostra Informativa sulla privacy e sui cookie.